1998-067UA

Last updated on Sun Aug 28 2022 00:02:06 GMT+0000 (Coordinated Universal Time)

1 53322U 98067UA 22239.46330996 .00029647 00000+0 48104-3 0 9990 2 53322 51.6426 343.1700 0001352 147.3224 212.7850 15.52489321 5722
UTC large
Height (km)
Speed (km/s)
/
Latitude / Longitude
Inclination (degrees)
Orbital Period (minutes)
Azimuth
Elevation
Range (km)
Doppler Factor

Next 0 passes for location: London (51.5072 / 0.1276)

Sorry there are no passes over London.